User: anonymous   Login
Location: Stoke Bliss
(52.2667°N, 2.5167°W)
Time: 00:56:32
(UTC+00:00)
Language:

H-2A R/B - Orbit

View from above orbital plane
View from above orbital plane
View from above satellite
View from above satellite

Ground track
Ground track

The orbit data is extracted from the following two-line orbital elements,

1 27601U 02056E   21125.35503436 -.00000015  00000-0  90326-5 0  9991
2 27601  98.1930 149.9733 0072931  39.3097 331.4781 14.31991507960762
Epoch (UTC): 05 May 2021 08:31:14
Eccentricity: 0.0072931
inclination: 98.1930°
perigee height: 733 km
apogee height: 837 km
right ascension of ascending node: 149.9733°
argument of perigee: 39.3097°
revolutions per day: 14.31991507
mean anomaly at epoch: 331.4781°
orbit number at epoch: 96076

The dashed part of the orbit path shows where the satellite is in the earth's shadow,  

DLR